Location: Fleischmann Planetarium and Science Center
(39.5456°N, 119.8190°W)
Time: 00:11:38
(UTC-08:00)

Daily predictions for brighter satellites

Satellite Brightness Start Highest point End
(mag) Time Altitude Azimuth Time Altitude Azimuth Time Altitude Azimuth
Cosmos 2278 Rocket 4.1 03:55:57 21° SSE 03:55:57 21° SSE 03:57:45 10° SSE
ATLAS CENTAUR Rocket 4.4 03:55:52 40° SW 03:58:42 44° S 04:04:35 10° ESE
SL-16 R/B 3.2 03:59:25 42° E 03:59:25 42° E 04:04:23 10° NE
Cosmos 1680 Rocket 4.2 04:19:29 47° SE 04:20:17 52° ESE 04:25:21 10° NNE
USA 215 3.2 04:20:03 10° NE 04:26:37 79° SE 04:28:10 55° SSW
Cosmos 2181 Rocket 4.0 04:27:25 46° N 04:29:31 86° E 04:35:52 10° S
Cosmos 2237 Rocket 4.1 04:34:09 17° N 04:34:09 17° N 04:35:33 10° N
Tiangong 2 4.1 04:38:00 15° ENE 04:38:00 15° ENE 04:38:41 10° ENE
H-2A ROCKET BODY 4.3 04:32:38 26° SSW 04:35:43 32° S 04:57:47 10° SE
Cosmos 2112 Rocket 4.2 04:33:59 10° S 04:39:09 66° ESE 04:44:19 10° NNE
Feng Yun 1-1 Rocket 4.1 04:34:52 10° NNE 04:40:31 89° ESE 04:46:00 10° SSW
CENTAUR R/B 2.6 04:46:00 54° NW 04:46:00 54° NW 04:52:27 10° NNE
Cosmos 1238 Rocket 3.7 04:47:59 30° N 04:50:23 70° E 04:56:01 10° SSE
Gbstr 26 Del rocket 3.1 04:51:19 73° S 04:51:19 73° S 04:55:09 10° SE
Cosmos 972 4.4 04:53:19 65° WNW 04:53:49 70° WSW 04:58:54 10° S
ADEOS II 4.4 04:53:18 10° N 04:53:22 10° N 04:53:22 10° N
Cosmos 2369 Rocket 4.4 04:55:39 10° N 04:59:59 21° NE 05:04:16 10° ESE
PSLV R/B 4.2 05:01:56 46° ENE 05:01:56 46° ENE 05:04:30 10° E
Thor Agena Rocket 4.4 04:57:46 10° S 05:00:56 33° SW 05:00:56 33° SW
Meteor 1-20 Rocket 4.1 05:02:00 10° S 05:07:37 88° W 05:13:10 10° N
COSMO-SKYMED 1 2.7 05:05:50 10° SSE 05:10:09 72° ENE 05:13:28 17° N
Lacrosse 5 3.4 05:06:25 10° S 05:11:02 35° SE 05:15:40 10° ENE
Cosmos 921 Rocket 3.2 05:08:51 28° N 05:11:09 77° ENE 05:15:39 10° SSE
SJ-6F 4.2 05:10:49 10° N 05:14:52 68° WNW 05:18:54 10° SSW
Cosmos 2333 Rocket 4.2 05:20:58 12° NNW 05:20:58 12° NNW 05:21:38 10° NNW
Cosmos 2297 4.1 05:18:46 37° WNW 05:19:54 41° WSW 05:25:10 10° S
Cosmos 2056 Rocket 4.0 05:17:30 10° N 05:22:36 58° ENE 05:27:37 10° SSE
Okean 1 3.2 05:21:05 24° NNW 05:23:25 78° W 05:27:26 10° S
DELTA 2 R/B (1) 4.4 05:23:09 28° WSW 05:25:06 37° SSW 05:30:10 10° SE
Cosmos 44 Rocket 4.3 05:24:23 10° S 05:29:23 51° ESE 05:34:22 10° NE
DMSP B5D1-3 4.4 05:29:12 10° S 05:34:20 81° WSW 05:39:32 10° NNW
USA 32 4.2 05:30:00 10° NNW 05:35:02 49° W 05:40:02 10° SSW
Cosmos 2278 Rocket 4.2 05:37:52 10° WSW 05:37:52 10° WSW 05:38:02 10° SW
Cosmos 1300 Rocket 3.5 05:31:54 10° S 05:36:20 84° W 05:40:45 10° N
Cosmos 1624 Rocket 4.0 05:31:25 10° NNW 05:36:45 86° ENE 05:42:03 10° SSE
Meteor 1-11 Rocket 4.1 05:31:13 10° S 05:37:04 71° E 05:42:49 10° NNE
Cosmos 1602 3.8 05:33:40 10° S 05:37:36 81° E 05:41:35 10° N
Cosmos 1812 3.4 05:38:56 31° W 05:39:05 31° W 05:42:32 10° SSW
GPS 2-05 Rocket1 3.7 05:38:42 26° WSW 05:40:16 42° S 05:43:43 10° ESE
Cosmos 1371 Rocket 3.9 05:35:57 12° NNW 05:40:51 71° WSW 05:46:04 10° S
Ariane Rocket 2.9 05:36:25 10° N 05:41:29 78° WNW 05:46:31 10° SSW
Cosmos 2074 Rocket 4.2 05:35:42 10° SSW 05:41:42 46° WNW 05:47:43 10° N
CRYOSAT 2 4.5 05:37:38 10° SSW 05:42:22 51° W 05:47:09 10° NNW
Cosmos 1346 Rocket 2.8 05:40:03 18° NNW 05:42:46 53° W 05:46:35 10° S
SL-16 R/B 3.1 05:41:26 23° W 05:43:18 27° WNW 05:48:06 10° N
Iridium 2 4.5 05:41:18 10° SW 05:44:37 28° W 05:45:09 27° WNW
SL-24 DEB 4.4 05:42:08 10° S 05:46:54 79° E 05:51:42 10° N
Meteor 1-13 Rocket 4.3 05:44:56 10° NNW 05:50:54 79° W 05:56:49 10° S
CZ-4 R/B 2.4 05:48:14 10° NNE 05:52:05 47° E 05:55:51 10° S
Cosmos 1943 Rocket 4.1 05:49:05 10° N 05:53:36 25° NE 05:58:06 10° ESE
Cosmos 2184 Rocket 4.4 05:50:00 10° SW 05:55:37 37° WNW 06:01:19 10° N
SKYMED 2 4.3 05:54:25 10° SSW 05:58:18 32° W 06:02:05 11° NW
Lacrosse 4 Rocket 4.2 05:58:21 10° NNE 05:59:17 11° NE 06:00:13 10° ENE
Meteor 1-28 Rocket 3.5 06:00:24 10° S 06:04:02 46° W 06:07:44 10° NNW
Cosmos 1633 2.8 06:02:13 10° SSW 06:05:45 46° W 06:09:16 10° N
Cosmos 1536 2.7 06:03:06 10° SSW 06:07:04 74° W 06:11:05 10° N
Abrixas rocket 2.6 06:05:21 10° SW 06:08:41 68° SE 06:12:02 10° ENE
USA 215 3.9 06:03:25 10° NE 06:09:13 35° NNW 06:15:01 10° W
Cosmos 2154 Rocket 4.1 06:04:44 10° SSW 06:10:48 55° W 06:16:54 10° N
Cosmos 1452 Rocket 3.9 06:06:57 10° NNW 06:12:13 68° ENE 06:17:27 10° SSE
Tiangong 2 1.6 06:10:04 16° WNW 06:12:18 43° N 06:15:20 10° ENE
IRS-1A Rocket 4.3 06:15:07 10° N 06:20:45 68° WNW 06:26:30 10° SSW
Helios 1B rocket 2.6 06:17:34 10° SSE 06:21:42 76° ENE 06:25:51 10° N
Meteor 2-4 Rocket 3.7 06:19:17 10° NNW 06:24:44 68° W 06:30:19 10° S
Cosmos 1340 3.3 06:21:16 10° N 06:25:01 57° E 06:28:44 10° SSE
AQUARIUS 4.2 06:22:35 10° NNE 06:27:06 88° WNW 06:31:36 10° SSW
CZ-2C R/B 2.5 06:24:27 10° NNE 06:29:41 85° WNW 06:34:45 10° SSW
YAOGAN 1 2.6 06:26:32 10° NNE 06:30:53 87° WNW 06:35:13 10° SSW
Cosmos 1484 Rocket 4.3 06:27:55 10° NNE 06:31:30 41° E 06:35:07 10° S
CZ-3 R/B 3.1 06:28:07 10° SW 06:32:34 17° S 06:35:02 10° SSE
CSL-04 Rocket 4.3 06:28:27 10° N 06:33:26 35° WNW 06:38:22 10° SW
Meteor 1-5 Rocket 4.1 06:29:41 10° SSW 06:35:06 77° W 06:40:26 10° N
